, SD

(GMT )
Rapid City

Weather History for KRAP - January, 2014

Change the Weather History Date:

Friday, January 24, 2014

  Actual Average Record
Temperature  
Mean Temperature 39 °F 25 °F  
Max Temperature 58 °F 37 °F 69 °F (1968)
Min Temperature 19 °F 13 °F -22 °F (1957)
Degree Days  
Heating Degree Days 26 40  
Month to date heating degree days 912 962  
Since 1 July heating degree days 4055 3878  
Cooling Degree Days 0 0  
Month to date cooling degree days 0 0  
Year to date cooling degree days 0 0  
Moisture  
Dew Point 28 °F    
Average Humidity 47    
Maximum Humidity 60    
Minimum Humidity 33    
Precipitation  
Precipitation 0.00 in 0.01 in 0.21 in (1970)
Month to date precipitation 0.19 0.24  
Year to date precipitation 0.19 0.24  
Snow  
Snow 0.00 in 0.10 in 1.90 in (1957)
Month to date snowfall 3.0 3.4  
Since 1 July snowfall 36.4 16.6  
Snow Depth 0.00 in    
Sea Level Pressure  
Sea Level Pressure 30.00 in    
Wind  
Wind Speed 28 mph (NW)    
Max Wind Speed 52 mph    
Max Gust Speed 60 mph    
Visibility 10 miles    
Events      
T = Trace of Precipitation, MM = Missing Value Source: NWS Daily Summary

Daily Weather History Graph

Daily Weather History Graph

Search for Another Location

Airport or City:

Trip Planner

Search our weather history database for the weather conditions in past years. The results will help you decide how hot, cold, wet, or windy it might be!

Date:

Astronomy

Jan. 24, 2014 Rise Set
Actual Time 7:17 AM MST 4:51 PM MST
Civil Twilight 6:46 AM MST 5:23 PM MST
Nautical Twilight 6:11 AM MST 5:58 PM MST
Astronomical Twilight 5:36 AM MST 6:32 PM MST
Moon 12:44 AM MST (1/24) 11:13 AM MST (1/24)
Length of Visible Light 10h 36m
Length of Day
9h 34m
Last Quarter, 44% of the Moon is Illuminated
Jan 24
Last Quarter
Jan 30
New
Feb 6
First Quarter
Feb 14
Full
Feb 22
Last Quarter

Hourly Weather History & Observations

Time (MST) Temp. Windchill Dew Point Humidity Pressure Visibility Wind Dir Wind Speed Gust Speed Precip Events Conditions
12:52 AM 23.0 °F - 10.0 °F 58% 30.17 in 10.0 mi Calm Calm - N/A   Clear
1:52 AM 34.0 °F 27.2 °F 14.0 °F 44% 30.13 in 10.0 mi NW 8.1 mph - N/A   Mostly Cloudy
2:52 AM 42.1 °F 32.3 °F 21.9 °F 45% 30.10 in 10.0 mi NW 24.2 mph 32.2 mph N/A   Overcast
3:52 AM 39.9 °F 31.8 °F 25.0 °F 55% 30.09 in 10.0 mi NNW 15.0 mph - N/A   Overcast
4:52 AM 41.0 °F 32.2 °F 28.0 °F 60% 30.09 in 10.0 mi NW 18.4 mph - N/A   Overcast
5:52 AM 43.0 °F 32.7 °F 28.9 °F 58% 30.10 in 10.0 mi NW 28.8 mph 39.1 mph N/A   Overcast
6:52 AM 44.1 °F 35.2 °F 28.9 °F 55% 30.09 in 10.0 mi NW 23.0 mph 35.7 mph N/A   Overcast
7:52 AM 44.1 °F 35.2 °F 30.0 °F 58% 30.08 in 10.0 mi NW 23.0 mph 33.4 mph N/A   Mostly Cloudy
8:52 AM 46.9 °F - 30.0 °F 52% 30.06 in 10.0 mi NW 26.5 mph 35.7 mph N/A   Mostly Cloudy
9:52 AM 50.0 °F - 30.0 °F 46% 30.05 in 10.0 mi NW 17.3 mph 27.6 mph N/A   Mostly Cloudy
10:52 AM 51.1 °F - 30.9 °F 46% 30.04 in 10.0 mi NW 32.2 mph 39.1 mph N/A   Mostly Cloudy
11:52 AM 54.0 °F - 32.0 °F 43% 29.99 in 10.0 mi NW 34.5 mph 44.9 mph N/A   Overcast
12:52 PM 55.0 °F - 30.9 °F 40% 29.96 in 10.0 mi NW 28.8 mph 41.4 mph N/A   Mostly Cloudy
1:52 PM 57.0 °F - 32.0 °F 39% 29.88 in 10.0 mi NW 43.7 mph 56.4 mph N/A   Clear
2:52 PM 57.0 °F - 28.9 °F 34% 29.85 in 10.0 mi NW 40.3 mph 54.1 mph N/A   Clear
3:52 PM 53.1 °F - 28.9 °F 40% 29.88 in 10.0 mi NW 35.7 mph 58.7 mph N/A   Clear
4:52 PM 48.9 °F - 28.9 °F 46% 29.92 in 10.0 mi NNW 32.2 mph 43.7 mph N/A   Clear
5:52 PM 48.0 °F - 28.9 °F 48% 29.91 in 10.0 mi NW 32.2 mph 43.7 mph N/A   Clear
6:52 PM 46.9 °F - 30.0 °F 52% 29.92 in 10.0 mi NNW 36.8 mph 49.5 mph N/A   Clear
7:52 PM 46.9 °F - 30.0 °F 52% 29.91 in 10.0 mi NNW 39.1 mph 55.2 mph N/A   Clear
8:52 PM 46.0 °F 36.1 °F 30.0 °F 54% 29.93 in 10.0 mi NNW 34.5 mph 47.2 mph N/A   Clear
9:52 PM 46.9 °F - 28.9 °F 50% 29.95 in 10.0 mi NNW 28.8 mph 39.1 mph N/A   Scattered Clouds
10:52 PM 45.0 °F 35.2 °F 30.0 °F 56% 29.97 in 10.0 mi NNW 29.9 mph 39.1 mph N/A   Partly Cloudy
11:52 PM 46.0 °F 36.9 °F 30.0 °F 54% 29.98 in 10.0 mi NW 28.8 mph 35.7 mph N/A   Mostly Cloudy